Terminal Aerodrome Forecast
Issued by NWS Salt Lake City, UT

Home | Current Version | Previous Version | Text Only | Print | Product List | Glossary On
Versions: 1 2 3 4 5 6 7 8 9 10 11 12 13 14 15 16 17 18 19 20 21 22 23 24 25 26 27 28 29 30 31 32 33 34 35
000
FTUS45 KSLC 250540
TAFSLC
TAF
KSLC 250540Z 2506/2612 16007KT P6SM BKN150
      TEMPO 2506/2508 25007KT
     FM251600 29007KT P6SM SCT070 BKN100
     FM260800 18006KT P6SM VCSH BKN060=

USA.gov is the U.S. government's official web portal to all federal, state and local government web resources and services.